When you browse on this site, cookies collect data to enhance your experience and personalize the content and advertising you see.
Visit our Privacy Policy to learn more. By continuing to use the site, you agree to this use of cookies and data.
  • In Österreich
  • Länderverzeichnis
  • Für 7 Tage
  • Wassertemperatur
  • Wetterkarte
  • News
  • Widgets
  • user-avatar
    Anmelden

    Stündliche Wetter Stara Sagora

    Heute, 24 Oktober, Donnerstag

    Zeit Temperatur Niederschläge Wind Luftdruck Luftfeuchtigkeit
    00:00 +15°C° 0 mm 1 m/S 746 mmHg 60%
    01:00 +15°C° 0 mm 1 m/S 746 mmHg 62%
    02:00 +14°C° 0 mm 1 m/S 746 mmHg 65%
    03:00 +13°C° 0 mm 0 m/S 745 mmHg 66%
    04:00 +13°C° 0 mm 0 m/S 745 mmHg 67%
    05:00 +12°C° 0 mm 0 m/S 745 mmHg 69%
    06:00 +13°C° 0 mm 0 m/S 745 mmHg 66%
    07:00 +14°C° 0 mm 0 m/S 745 mmHg 63%
    08:00 +14°C° 0 mm 0 m/S 745 mmHg 61%
    09:00 +17°C° 0 mm 0 m/S 745 mmHg 53%
    10:00 +19°C° 0 mm 0 m/S 745 mmHg 46%
    11:00 +23°C° 0 mm 1 m/S 745 mmHg 39%
    12:00 +24°C° 0 mm 1 m/S 745 mmHg 36%
    13:00 +25°C° 0 mm 1 m/S 745 mmHg 33%
    14:00 +26°C° 0 mm 2 m/S 744 mmHg 30%
    15:00 +24°C° 0 mm 2 m/S 744 mmHg 33%
    16:00 +23°C° 0 mm 1 m/S 743 mmHg 36%
    17:00 +22°C° 0 mm 1 m/S 743 mmHg 38%
    18:00 +21°C° 0 mm 1 m/S 743 mmHg 42%
    19:00 +19°C° 0 mm 1 m/S 743 mmHg 46%
    20:00 +18°C° 0 mm 1 m/S 743 mmHg 50%
    21:00 +16°C° 0 mm 1 m/S 744 mmHg 53%
    22:00 +16°C° 0 mm 1 m/S 744 mmHg 57%
    23:00 +15°C° 0 mm 1 m/S 744 mmHg 60%

    Morgen, 25 Oktober, Freitag

    Zeit Temperatur Niederschläge Wind Luftdruck Luftfeuchtigkeit
    00:00 +15°C° 0 mm 1 m/S 744 mmHg 62%
    01:00 +14°C° 0 mm 1 m/S 743 mmHg 64%
    02:00 +14°C° 0 mm 1 m/S 743 mmHg 66%
    03:00 +13°C° 0 mm 1 m/S 743 mmHg 66%
    04:00 +13°C° 0 mm 1 m/S 743 mmHg 67%
    05:00 +12°C° 0 mm 0 m/S 743 mmHg 68%
    06:00 +12°C° 0 mm 0 m/S 743 mmHg 64%
    07:00 +13°C° 0 mm 0 m/S 744 mmHg 61%
    08:00 +14°C° 0 mm 0 m/S 744 mmHg 58%
    09:00 +16°C° 0 mm 0 m/S 744 mmHg 51%
    10:00 +20°C° 0 mm 1 m/S 744 mmHg 44%
    11:00 +23°C° 0 mm 1 m/S 744 mmHg 37%
    12:00 +23°C° 0 mm 1 m/S 744 mmHg 34%
    13:00 +24°C° 0 mm 1 m/S 744 mmHg 31%
    14:00 +25°C° 0 mm 1 m/S 744 mmHg 28%
    15:00 +24°C° 0 mm 1 m/S 744 mmHg 31%
    16:00 +23°C° 0 mm 1 m/S 744 mmHg 34%
    17:00 +21°C° 0 mm 1 m/S 744 mmHg 37%
    18:00 +20°C° 0 mm 1 m/S 744 mmHg 40%
    19:00 +19°C° 0 mm 1 m/S 744 mmHg 43%
    20:00 +18°C° 0 mm 1 m/S 745 mmHg 47%
    21:00 +16°C° 0 mm 1 m/S 745 mmHg 49%
    22:00 +16°C° 0 mm 1 m/S 745 mmHg 52%
    23:00 +15°C° 0 mm 1 m/S 746 mmHg 55%

    übermorgen, 26 Oktober, Samstag

    Zeit Temperatur Niederschläge Wind Luftdruck Luftfeuchtigkeit
    00:00 +15°C° 0 mm 1 m/S 746 mmHg 56%
    01:00 +15°C° 0 mm 1 m/S 746 mmHg 57%
    02:00 +14°C° 0 mm 1 m/S 746 mmHg 59%
    03:00 +14°C° 0 mm 1 m/S 746 mmHg 59%
    04:00 +14°C° 0 mm 1 m/S 746 mmHg 59%
    05:00 +13°C° 0 mm 1 m/S 746 mmHg 59%
    06:00 +14°C° 0 mm 1 m/S 746 mmHg 56%
    07:00 +15°C° 0 mm 1 m/S 747 mmHg 53%
    08:00 +15°C° 0 mm 1 m/S 747 mmHg 51%
    09:00 +19°C° 0 mm 1 m/S 747 mmHg 44%
    10:00 +21°C° 0 mm 1 m/S 747 mmHg 38%
    11:00 +21°C° 0 mm 0 m/S 748 mmHg 32%
    12:00 +24°C° 0 mm 1 m/S 747 mmHg 30%
    13:00 +25°C° 0 mm 1 m/S 747 mmHg 28%
    14:00 +26°C° 0 mm 1 m/S 747 mmHg 26%
    15:00 +24°C° 0 mm 1 m/S 746 mmHg 29%
    16:00 +23°C° 0 mm 1 m/S 746 mmHg 33%
    17:00 +22°C° 0 mm 1 m/S 746 mmHg 36%
    18:00 +21°C° 0 mm 1 m/S 746 mmHg 38%
    19:00 +19°C° 0 mm 1 m/S 746 mmHg 41%
    20:00 +18°C° 0 mm 1 m/S 746 mmHg 43%
    21:00 +18°C° 0 mm 1 m/S 746 mmHg 45%
    22:00 +16°C° 0 mm 1 m/S 747 mmHg 46%
    23:00 +16°C° 0 mm 1 m/S 747 mmHg 47%

    27 Oktober, Sonntag

    Zeit Temperatur Niederschläge Wind Luftdruck Luftfeuchtigkeit
    00:00 +15°C° 0 mm 1 m/S 747 mmHg 48%
    01:00 +15°C° 0 mm 1 m/S 746 mmHg 48%
    02:00 +15°C° 0 mm 1 m/S 746 mmHg 49%
    03:00 +13°C° 0 mm 0 m/S 746 mmHg 49%
    04:00 +13°C° 0 mm 0 m/S 746 mmHg 50%
    05:00 +13°C° 0 mm 0 m/S 746 mmHg 51%
    06:00 +13°C° 0 mm 0 m/S 746 mmHg 49%
    07:00 +14°C° 0 mm 0 m/S 746 mmHg 47%
    08:00 +15°C° 0 mm 0 m/S 746 mmHg 45%
    09:00 +17°C° 0 mm 0 m/S 746 mmHg 39%
    10:00 +19°C° 0 mm 0 m/S 746 mmHg 34%
    11:00 +24°C° 0 mm 1 m/S 746 mmHg 28%
    12:00 +24°C° 0 mm 1 m/S 746 mmHg 27%
    13:00 +25°C° 0 mm 1 m/S 745 mmHg 25%
    14:00 +26°C° 0 mm 1 m/S 745 mmHg 24%
    15:00 +24°C° 0 mm 1 m/S 745 mmHg 28%
    16:00 +23°C° 0 mm 1 m/S 744 mmHg 31%
    17:00 +21°C° 0 mm 1 m/S 744 mmHg 35%
    18:00 +20°C° 0 mm 1 m/S 744 mmHg 37%
    19:00 +19°C° 0 mm 1 m/S 744 mmHg 40%
    20:00 +18°C° 0 mm 1 m/S 744 mmHg 42%
    21:00 +16°C° 0 mm 1 m/S 744 mmHg 45%
    22:00 +16°C° 0 mm 1 m/S 744 mmHg 47%
    23:00 +15°C° 0 mm 1 m/S 744 mmHg 50%

    28 Oktober, Montag

    Zeit Temperatur Niederschläge Wind Luftdruck Luftfeuchtigkeit
    00:00 +15°C° 0 mm 1 m/S 743 mmHg 52%
    01:00 +14°C° 0 mm 1 m/S 743 mmHg 54%
    02:00 +13°C° 0 mm 0 m/S 743 mmHg 57%
    03:00 +12°C° 0 mm 0 m/S 743 mmHg 58%
    04:00 +12°C° 0 mm 0 m/S 742 mmHg 59%
    05:00 +12°C° 0 mm 0 m/S 742 mmHg 60%
    06:00 +12°C° 0 mm 0 m/S 742 mmHg 58%
    07:00 +13°C° 0 mm 0 m/S 742 mmHg 56%
    08:00 +13°C° 0 mm 0 m/S 742 mmHg 53%
    09:00 +16°C° 0 mm 0 m/S 742 mmHg 47%
    10:00 +18°C° 0 mm 0 m/S 742 mmHg 41%
    11:00 +22°C° 0 mm 1 m/S 741 mmHg 35%
    12:00 +23°C° 0 mm 1 m/S 741 mmHg 33%
    13:00 +24°C° 0 mm 1 m/S 741 mmHg 30%
    14:00 +24°C° 0 mm 1 m/S 740 mmHg 28%
    15:00 +23°C° 0 mm 1 m/S 740 mmHg 31%
    16:00 +22°C° 0 mm 1 m/S 740 mmHg 34%
    17:00 +21°C° 0 mm 1 m/S 739 mmHg 38%
    18:00 +20°C° 0 mm 1 m/S 739 mmHg 40%
    19:00 +19°C° 0 mm 1 m/S 740 mmHg 42%
    20:00 +18°C° 0 mm 1 m/S 740 mmHg 44%
    21:00 +18°C° 0 mm 1 m/S 740 mmHg 46%
    22:00 +16°C° 0 mm 1 m/S 740 mmHg 47%
    23:00 +16°C° 0 mm 1 m/S 740 mmHg 49%

    29 Oktober, Dienstag

    Zeit Temperatur Niederschläge Wind Luftdruck Luftfeuchtigkeit
    00:00 +16°C° 0 mm 1 m/S 740 mmHg 52%
    01:00 +14°C° 0 mm 0 m/S 740 mmHg 54%
    02:00 +14°C° 0 mm 0 m/S 740 mmHg 56%
    03:00 +14°C° 0 mm 0 m/S 740 mmHg 57%
    04:00 +13°C° 0 mm 0 m/S 740 mmHg 59%
    05:00 +13°C° 0 mm 0 m/S 740 mmHg 60%
    06:00 +13°C° 0 mm 0 m/S 740 mmHg 58%
    07:00 +14°C° 0 mm 0 m/S 740 mmHg 55%
    08:00 +14°C° 0 mm 0 m/S 740 mmHg 53%
    09:00 +18°C° 0 mm 1 m/S 740 mmHg 46%
    10:00 +20°C° 0 mm 1 m/S 741 mmHg 40%
    11:00 +22°C° 0 mm 1 m/S 741 mmHg 33%
    12:00 +23°C° 0 mm 1 m/S 741 mmHg 31%
    13:00 +24°C° 0 mm 1 m/S 740 mmHg 29%
    14:00 +24°C° 0 mm 1 m/S 740 mmHg 27%
    15:00 +23°C° 0 mm 1 m/S 740 mmHg 29%
    16:00 +22°C° 0 mm 1 m/S 740 mmHg 32%
    17:00 +20°C° 0 mm 1 m/S 739 mmHg 35%
    18:00 +19°C° 0 mm 1 m/S 739 mmHg 37%
    19:00 +19°C° 0 mm 1 m/S 740 mmHg 39%
    20:00 +18°C° 0 mm 1 m/S 740 mmHg 41%
    21:00 +16°C° 0 mm 1 m/S 740 mmHg 43%
    22:00 +16°C° 0 mm 1 m/S 740 mmHg 46%
    23:00 +15°C° 0 mm 1 m/S 740 mmHg 48%

    30 Oktober, Mittwoch

    Zeit Temperatur Niederschläge Wind Luftdruck Luftfeuchtigkeit
    00:00 +15°C° 0 mm 1 m/S 740 mmHg 49%
    01:00 +14°C° 0 mm 1 m/S 740 mmHg 50%
    02:00 +14°C° 0 mm 1 m/S 740 mmHg 52%
    03:00 +14°C° 0 mm 1 m/S 740 mmHg 52%
    04:00 +13°C° 0 mm 1 m/S 740 mmHg 52%
    05:00 +13°C° 0 mm 1 m/S 740 mmHg 52%
    06:00 +13°C° 0 mm 1 m/S 740 mmHg 50%
    07:00 +14°C° 0 mm 1 m/S 740 mmHg 48%
    08:00 +14°C° 0 mm 1 m/S 740 mmHg 46%
    09:00 +18°C° 0 mm 1 m/S 740 mmHg 41%
    10:00 +20°C° 0 mm 1 m/S 740 mmHg 35%
    11:00 +22°C° 0 mm 1 m/S 740 mmHg 29%
    12:00 +23°C° 0 mm 1 m/S 740 mmHg 27%
    13:00 +24°C° 0 mm 1 m/S 739 mmHg 25%
    14:00 +25°C° 0 mm 1 m/S 739 mmHg 23%
    15:00 +23°C° 0 mm 1 m/S 739 mmHg 26%
    16:00 +22°C° 0 mm 1 m/S 738 mmHg 29%
    17:00 +20°C° 0 mm 1 m/S 738 mmHg 32%
    18:00 +19°C° 0 mm 1 m/S 738 mmHg 35%
    19:00 +18°C° 0 mm 1 m/S 738 mmHg 39%
    20:00 +16°C° 0 mm 1 m/S 739 mmHg 43%
    21:00 +16°C° 0 mm 1 m/S 739 mmHg 46%
    22:00 +15°C° 0 mm 1 m/S 739 mmHg 50%
    23:00 +15°C° 0 mm 1 m/S 739 mmHg 53%
    Mehr zeigen